This is the latest recevied weather packets stored in our database for station/object N3FAA. If no packets are shown the sender has not sent any weather packets the latest 10 day(s).
| Time | Temp. | Humidity | Pressure | Rain* | Wind** | Luminosity | Snow |
|---|---|---|---|---|---|---|---|
| 1777998692 | 13.89° C | 62% | 1010 hPa | 0 mm | - | 779 W/m² | - |
| 1777998389 | 13.89° C | 61% | 1010.1 hPa | 0 mm | - | 638 W/m² | - |
| 1777998087 | 13.89° C | 61% | 1010 hPa | 0 mm | - | 279 W/m² | - |
| 1777997784 | 13.33° C | 63% | 1009.9 hPa | 0 mm | - | 261 W/m² | - |
| 1777997481 | 13.33° C | 62% | 1010.1 hPa | 0 mm | - | 615 W/m² | - |
| 1777997179 | 13.33° C | 63% | 1009.8 hPa | 0 mm | - | 363 W/m² | - |
| 1777996876 | 13.33° C | 62% | 1009.6 hPa | 0 mm | - | 260 W/m² | - |
| 1777996572 | 13.33° C | 62% | 1009.8 hPa | 0 mm | - | 496 W/m² | - |
| 1777996268 | 13.33° C | 63% | 1010 hPa | 0 mm | - | 465 W/m² | - |
| 1777995964 | 13.33° C | 61% | 1009.9 hPa | 0 mm | - | 156 W/m² | - |
| 1777995661 | 12.78° C | 63% | 1009.6 hPa | 0 mm | - | 390 W/m² | - |
| 1777995358 | 12.78° C | 64% | 1009.8 hPa | 0 mm | - | 347 W/m² | - |
| 1777995055 | 12.78° C | 64% | 1009.6 hPa | 0 mm | - | 314 W/m² | - |
| 1777994752 | 12.78° C | 67% | 1009.6 hPa | 0 mm | - | 299 W/m² | - |
| 1777994447 | 12.22° C | 68% | 1009.8 hPa | 0 mm | - | 294 W/m² | - |
| 1777994143 | 12.22° C | 68% | 1009.4 hPa | 0 mm | - | 291 W/m² | - |
| 1777993841 | 12.22° C | 68% | 1009.8 hPa | 0 mm | - | 283 W/m² | - |
| 1777993537 | 12.22° C | 68% | 1009.5 hPa | 0 mm | - | 260 W/m² | - |
| 1777993233 | 11.67° C | 69% | 1009.4 hPa | 0 mm | - | 238 W/m² | - |
| 1777992929 | 11.67° C | 69% | 1009.4 hPa | 0 mm | - | 237 W/m² | - |
| 1777992628 | 11.67° C | 69% | 1009.5 hPa | 0 mm | - | 209 W/m² | - |
| 1777992325 | 11.67° C | 69% | 1009.8 hPa | 0 mm | - | 170 W/m² | - |
| 1777992022 | 11.67° C | 70% | 1009.9 hPa | 0 mm | - | 147 W/m² | - |
| 1777991720 | 11.11° C | 71% | 1009.6 hPa | 0 mm | - | 141 W/m² | - |
| 1777991417 | 11.11° C | 72% | 1009.8 hPa | 0 mm | - | 153 W/m² | - |
* Rain latest hour (hover to see other rain measurements)
** Current wind speed in m/s (hover to see current wind gust speed)